Location: Fayetteville
(35.0530°N, 78.8790°W)
Time: 17:25:44
(UTC-05:00)

Hubble Space Telescope - Pass Details

Date: 02 December 2021
Orbit: 534 x 538 km, 28.5° (Epoch: 28 January)

Event Time Altitude Azimuth Distance (km) Brightness Sun altitude
Exits shadow 05:14:48 25° 196° (SSW) 1,093 2.3 -22.3°
Maximum altitude 05:14:57 25° 191° (SSW) 1,090 2.3 -22.3°
Drops below altitude 10° 05:18:21 10° 135° (SE) 1,772 4.2 -21.6°
Sets 05:20:53 0° 122° (ESE) 2,661 5.6 -21.1°
